Grand Island, NE

5:04 PM CDT on May 26, 2017 (GMT -0500)
Central Nebraska Regional

Weather History for KGRI - February, 2014

Change the Weather History Date:

Monday, February 24, 2014

  Actual Average Record
Temperature  
Mean Temperature 22 °F 32 °F  
Max Temperature 30 °F 43 °F 74 °F (1918)
Min Temperature 14 °F 21 °F -17 °F (1965)
Degree Days  
Heating Degree Days 43 33  
Month to date heating degree days 972 877  
Since 1 July heating degree days 4651 4633  
Cooling Degree Days 0 0  
Month to date cooling degree days 0 0  
Year to date cooling degree days 0 0  
Moisture  
Dew Point 17 °F    
Average Humidity 71    
Maximum Humidity 92    
Minimum Humidity 50    
Precipitation  
Precipitation 0.04 in 0.03 in 0.46 in (2001)
Month to date precipitation 0.32 0.56  
Year to date precipitation 0.64 1.09  
Snow  
Snow 1.00 in 0.20 in 5.00 in (1997)
Month to date snowfall 6.5 5.5  
Since 1 July snowfall 13.4 21.3  
Snow Depth -    
Sea Level Pressure  
Sea Level Pressure 30.30 in    
Wind  
Wind Speed 11 mph (East)    
Max Wind Speed 32 mph    
Max Gust Speed 38 mph    
Visibility 8 miles    
Events Snow    
T = Trace of Precipitation, MM = Missing Value Source: NWS Daily Summary

Daily Weather History Graph

Daily Weather History Graph

Search for Another Location

Airport or City:

Trip Planner

Search our weather history database for the weather conditions in past years. The results will help you decide how hot, cold, wet, or windy it might be!

Date:

Astronomy

Feb. 24, 2014 Rise Set
Actual Time 7:14 AM CST 6:18 PM CST
Civil Twilight 6:47 AM CST 6:46 PM CST
Nautical Twilight 6:15 AM CST 7:18 PM CST
Astronomical Twilight 5:43 AM CST 7:50 PM CST
Moon 3:16 AM CST (2/24) 1:19 PM CST (2/24)
Length of Visible Light 11h 59m
Length of Day
11h 03m
Waning Crescent, 28% of the Moon is Illuminated
Feb 24
Waning Crescent
Mar 1
New
Mar 8
First Quarter
Mar 16
Full
Mar 23
Last Quarter

Hourly Weather History & Observations

Time (CST) Temp. Windchill Dew Point Humidity Pressure Visibility Wind Dir Wind Speed Gust Speed Precip Events Conditions
12:53 AM 25.0 °F 16.3 °F 15.1 °F 66% 30.40 in 5.0 mi East 8.1 mph - 0.00 in Snow Light Snow
12:56 AM 24.1 °F 15.2 °F 15.1 °F 69% 30.32 in 2.5 mi ENE 8.1 mph - 0.00 in Snow Light Snow
1:02 AM 23.0 °F 14.7 °F 17.1 °F 78% 30.33 in 0.8 mi East 6.9 mph - 0.01 in Snow Light Snow
1:17 AM 21.9 °F 15.7 °F 19.0 °F 89% 30.33 in 0.8 mi East 4.6 mph - 0.02 in Snow Light Snow
1:39 AM 21.9 °F 14.5 °F 19.0 °F 89% 30.33 in 1.0 mi East 5.8 mph - 0.04 in Snow Light Snow
1:51 AM 21.2 °F 13.6 °F 19.4 °F 93% 30.31 in 2.0 mi East 5.8 mph - 0.04 in Snow Light Snow
1:53 AM 21.9 °F 14.5 °F 19.0 °F 89% 30.39 in 2.0 mi ESE 5.8 mph - 0.04 in Snow Light Snow
2:03 AM 21.9 °F 15.7 °F 18.0 °F 85% 30.32 in 4.0 mi East 4.6 mph - 0.00 in Snow Light Snow
2:14 AM 21.0 °F 14.6 °F 18.0 °F 88% 30.31 in 6.0 mi East 4.6 mph - 0.00 in Snow Light Snow
2:23 AM 19.9 °F 12.1 °F 17.1 °F 89% 30.31 in 7.0 mi ENE 5.8 mph - 0.00 in   Overcast
2:25 AM 19.9 °F 11.1 °F 17.1 °F 89% 30.30 in 7.0 mi ENE 6.9 mph - 0.00 in   Overcast
2:53 AM 19.9 °F 11.1 °F 17.1 °F 89% 30.38 in 10.0 mi ENE 6.9 mph - 0.00 in   Overcast
3:17 AM 21.0 °F 11.4 °F 17.1 °F 85% 30.28 in 10.0 mi East 8.1 mph - N/A   Overcast
3:53 AM 19.9 °F 8.6 °F 17.1 °F 89% 30.35 in 10.0 mi East 10.4 mph - N/A   Overcast
4:33 AM 19.9 °F 9.3 °F 17.1 °F 89% 30.25 in 10.0 mi East 9.2 mph - N/A   Overcast
4:53 AM 19.9 °F 9.3 °F 16.0 °F 85% 30.32 in 10.0 mi ESE 9.2 mph - N/A   Overcast
5:53 AM 19.9 °F 10.1 °F 17.1 °F 89% 30.34 in 10.0 mi East 8.1 mph - N/A   Overcast
6:53 AM 19.9 °F 9.3 °F 17.1 °F 89% 30.34 in 10.0 mi ESE 9.2 mph - N/A   Overcast
7:53 AM 21.0 °F 9.9 °F 18.0 °F 88% 30.35 in 8.0 mi ESE 10.4 mph - N/A   Overcast
8:53 AM 21.0 °F 8.6 °F 18.0 °F 88% 30.34 in 7.0 mi ESE 12.7 mph - N/A   Overcast
9:53 AM 21.9 °F 10.4 °F 18.0 °F 85% 30.32 in 7.0 mi SE 11.5 mph - N/A   Overcast
10:33 AM 21.9 °F 10.4 °F 18.0 °F 85% 30.24 in 9.0 mi SE 11.5 mph - N/A   Overcast
10:53 AM 23.0 °F 13.1 °F 18.0 °F 81% 30.32 in 10.0 mi SE 9.2 mph - N/A   Overcast
11:53 AM 24.1 °F 12.5 °F 17.1 °F 75% 30.28 in 10.0 mi SSE 12.7 mph - N/A   Overcast
12:53 PM 25.0 °F 11.7 °F 18.0 °F 75% 30.24 in 10.0 mi SSE 17.3 mph - N/A   Overcast
1:04 PM 25.0 °F 11.3 °F 18.0 °F 75% 30.16 in 10.0 mi SSE 18.4 mph - N/A   Overcast
1:53 PM 27.0 °F 14.3 °F 19.0 °F 72% 30.20 in 10.0 mi SSE 17.3 mph - N/A   Overcast
2:40 PM 28.0 °F 17.5 °F 18.0 °F 66% 30.10 in 10.0 mi SSE 12.7 mph - N/A   Overcast
2:53 PM 28.0 °F 17.5 °F 19.0 °F 69% 30.18 in 10.0 mi SSE 12.7 mph - N/A   Overcast
3:43 PM 28.9 °F 21.9 °F 19.0 °F 67% 30.14 in 10.0 mi South 6.9 mph - N/A   Overcast
3:53 PM 28.9 °F 21.9 °F 18.0 °F 64% 30.21 in 10.0 mi South 6.9 mph - N/A   Overcast
4:22 PM 28.9 °F - 18.0 °F 64% 30.15 in 10.0 mi Calm Calm - N/A   Overcast
4:53 PM 28.9 °F 23.9 °F 19.0 °F 67% 30.23 in 10.0 mi NE 4.6 mph - N/A   Overcast
5:53 PM 28.0 °F 20.8 °F 19.9 °F 72% 30.26 in 10.0 mi NE 6.9 mph - N/A   Overcast
6:53 PM 27.0 °F - 19.0 °F 72% 30.28 in 10.0 mi Calm Calm - N/A   Mostly Cloudy
7:53 PM 24.1 °F - 19.0 °F 81% 30.29 in 10.0 mi Calm Calm - N/A   Scattered Clouds
8:53 PM 21.9 °F 14.5 °F 18.0 °F 85% 30.32 in 10.0 mi NW 5.8 mph - N/A   Mostly Cloudy
9:40 PM 25.0 °F 9.9 °F 19.9 °F 81% 30.27 in 9.0 mi NW 23.0 mph 27.6 mph 0.00 in Snow Light Snow
9:53 PM 24.1 °F 8.7 °F 17.1 °F 75% 30.36 in 10.0 mi NNW 23.0 mph 33.4 mph 0.00 in   Overcast
10:53 PM 18.0 °F -1.7 °F 10.9 °F 74% 30.41 in 10.0 mi NNW 31.1 mph 38.0 mph N/A   Overcast
11:40 PM 15.1 °F -4.4 °F 8.1 °F 74% 30.35 in 8.0 mi NNW 26.5 mph 32.2 mph 0.00 in Snow Light Snow
11:53 PM 14.0 °F -5.8 °F 7.0 °F 74% 30.45 in 9.0 mi NNW 26.5 mph 33.4 mph 0.00 in Snow Light Snow